Regional Weather Roundup
Issued by NWS

Home | Current Version | Previous Version | Text Only | Print | Product List | Glossary On
Versions: 1 2 3 4 5 6 7 8 9 10 11 12 13 14 15 16 17 18 19 20 21 22 23 24 25 26 27 28 29 30 31 32 33 34 35 36 37 38 39 40 41 42 43 44 45 46 47 48 49 50
000
ASUS43 KTOP 221559
RWRKS

WEATHER ROUNDUP FOR KANSAS
NATIONAL WEATHER SERVICE GOODLAND KS
1100 AM CDT FRI SEP 22 2017

NOTE:  "FAIR" INDICATES FEW OR NO CLOUDS BELOW 12,000 FEET WITH NO
SIGNIFICANT WEATHER AND/OR OBSTRUCTIONS TO VISIBILITY.

KSZ001>006-013>018-027>032-041>047-221700-
NORTHWEST KANSAS

CITY           SKY/WX    TMP DP  RH WIND       PRES   REMARKS
GOODLAND       CLOUDY    78  52  40 S17       29.80S
HAYS           CLOUDY    84  65  52 S23G33    29.83F
HILL CITY      MOSUNNY   89  62  40 S24G39    29.80S
RUSSELL        CLOUDY    86  65  49 S21G28    29.84S
$$

KSZ061>065-074>080-084>089-221700-
SOUTHWEST KANSAS

CITY           SKY/WX    TMP DP  RH WIND       PRES   REMARKS
DODGE CITY     SUNNY     85  63  47 S22G30    29.89S
ELKHART          N/A     79  64  60 S18         N/A
GARDEN CITY    SUNNY     85  61  44 SW32G39   29.87S
GREAT BEND     SUNNY     86  66  51 S23       29.87S
LIBERAL        MOSUNNY   80  64  58 S18       29.91S
$$

KSZ066>073-081>083-090>101-221700-
SOUTHEAST KANSAS

CITY           SKY/WX    TMP DP  RH WIND       PRES   REMARKS
CHANUTE        SUNNY     83  71  67 S14       30.00S
COFFEYVILLE    SUNNY     82  70  66 S14G20    29.99S
HUTCHINSON     SUNNY     85  70  60 S18G25    29.90S
MEDICINE LODGE   N/A     82  68  62 S15       29.90R
NEWTON         SUNNY     83  69  62 S22       29.93S
WICHITA INTL   MOSUNNY   84  70  62 S20       29.92S
WICHITA JABRA  SUNNY     83  71  67 S18G25    29.93S
WINFIELD       SUNNY     84  72  67 S17       29.97R
$$

KSZ007>012-019>026-033>040-048>060-102>105-221700-
NORTHEAST KANSAS

CITY           SKY/WX    TMP DP  RH WIND       PRES   REMARKS
CONCORDIA      SUNNY     83  70  64 S24G32    29.85R
EMPORIA        SUNNY     82  70  66 S15G22    29.96R
LAWRENCE       SUNNY     83  72  69 S13       29.96S
MANHATTAN      SUNNY     87  70  56 S16G24    29.88F
OLATHE IND     SUNNY     81  70  69 S14G22    29.99S
OLATHE EXE     SUNNY     81  72  74 S13       29.99S
SALINA         SUNNY     89  68  49 S20G30    29.87R
TOPEKA BILLARD SUNNY     84  73  69 S13G20    29.94S
TOPEKA FORBES  SUNNY     84  72  67 S15       29.95R
$$




USA.gov is the U.S. government's official web portal to all federal, state and local government web resources and services.